Weather History for Iron Mountain, MI

Change the Weather History Date:

Wednesday, February 13, 2013

  Actual Average Record
Temperature  
Mean Temperature 24 °F -  
Max Temperature 39 °F 27 °F 48 °F (2011)
Min Temperature 9 °F 3 °F -22 °F (1965)
Degree Days  
Heating Degree Days 41    
Moisture  
Dew Point 20 °F    
Average Humidity 78    
Maximum Humidity 92    
Minimum Humidity 55    
Precipitation  
Precipitation 0.00 in - - ()
Sea Level Pressure  
Sea Level Pressure 29.66 in    
Wind  
Wind Speed 1 mph (West)    
Max Wind Speed 5 mph    
Max Gust Speed -    
Visibility 9 miles    
Events      
Averages and records for this station are not official NWS values.
T = Trace of Precipitation, MM = Missing Value Source: NWS Daily Summary

Daily Weather History Graph

Daily Weather History Graph

Search for Another Location

Airport:

Trip Planner

Search our weather history database for the weather conditions in past years. The results will help you decide how hot, cold, wet, or windy it might be!

Date:

Astronomy

Feb. 13, 2013 Rise Set
Actual Time 6:57 AM CST 5:16 PM CST
Civil Twilight 6:26 AM CST 5:47 PM CST
Nautical Twilight 5:51 AM CST 6:22 PM CST
Astronomical Twilight 5:17 AM CST 6:56 PM CST
Moon 8:12 AM CST (2/13) 9:35 PM CST (2/13)
Length of Visible Light 11h 20m
Length of Day
10h 19m
Waxing Crescent, 14% of the Moon is Illuminated
Feb 13
Waxing Crescent
Feb 17
First Quarter
Feb 25
Full
Mar 4
Last Quarter
Mar 11
New

Hourly Weather History & Observations

Time (CST) Temp. Windchill Dew Point Humidity Pressure Visibility Wind Dir Wind Speed Gust Speed Precip Events Conditions
12:54 AM 12.0 °F - 9.0 °F 88% 29.75 in 8.0 mi Calm Calm - N/A   Clear
1:54 AM 9.0 °F - 6.1 °F 88% 29.73 in 8.0 mi Calm Calm - N/A   Scattered Clouds
2:54 AM 9.0 °F - 7.0 °F 92% 29.71 in 8.0 mi Calm Calm - N/A   Mostly Cloudy
3:54 AM 12.0 °F - 10.0 °F 92% 29.71 in 9.0 mi Calm Calm - N/A   Partly Cloudy
4:54 AM 12.0 °F - 10.0 °F 92% 29.70 in 7.0 mi Calm Calm - N/A   Mostly Cloudy
5:54 AM 19.9 °F - 17.1 °F 89% 29.69 in 9.0 mi Calm Calm - N/A   Overcast
6:54 AM 21.0 °F 16.2 °F 18.0 °F 88% 29.69 in 9.0 mi West 3.5 mph - N/A   Overcast
7:54 AM 21.9 °F 15.7 °F 18.0 °F 85% 29.69 in 8.0 mi NW 4.6 mph - N/A   Overcast
8:54 AM 25.0 °F - 21.0 °F 85% 29.68 in 9.0 mi Calm Calm - N/A   Overcast
9:54 AM 27.0 °F 23.0 °F 21.0 °F 78% 29.67 in 10.0 mi West 3.5 mph - N/A   Overcast
10:54 AM 30.0 °F - 21.9 °F 72% 29.67 in 10.0 mi Calm Calm - N/A   Overcast
11:54 AM 34.0 °F - 23.0 °F 64% 29.65 in 10.0 mi Calm Calm - N/A   Overcast
12:54 PM 37.0 °F - 23.0 °F 57% 29.64 in 10.0 mi Calm Calm - N/A   Overcast
1:54 PM 37.9 °F - 24.1 °F 57% 29.64 in 10.0 mi Calm Calm - N/A   Overcast
2:54 PM 39.0 °F - 24.1 °F 55% 29.63 in 10.0 mi Calm Calm - N/A   Overcast
3:54 PM 39.0 °F 35.7 °F 24.1 °F 55% 29.62 in 10.0 mi SSW 4.6 mph - N/A   Mostly Cloudy
4:54 PM 37.0 °F - 24.1 °F 59% 29.62 in 10.0 mi Calm Calm - N/A   Clear
5:54 PM 33.1 °F - 26.1 °F 75% 29.62 in 10.0 mi Calm Calm - N/A   Scattered Clouds
6:54 PM 33.1 °F 28.7 °F 25.0 °F 72% 29.64 in 10.0 mi WSW 4.6 mph - N/A   Clear
7:54 PM 30.0 °F - 24.1 °F 79% 29.64 in 10.0 mi Calm Calm - N/A   Partly Cloudy
8:54 PM 26.1 °F - 21.9 °F 84% 29.64 in 10.0 mi Calm Calm - N/A   Clear
9:54 PM 26.1 °F - 23.0 °F 88% 29.63 in 10.0 mi Calm Calm - N/A   Partly Cloudy
10:54 PM 28.9 °F 25.2 °F 26.1 °F 89% 29.63 in 10.0 mi North 3.5 mph - N/A   Overcast
11:54 PM 27.0 °F - 24.1 °F 89% 29.63 in 10.0 mi Calm Calm - N/A   Overcast